When you browse on this site, cookies collect data to enhance your experience and personalize the content and advertising you see.
Visit our Privacy Policy to learn more. By continuing to use the site, you agree to this use of cookies and data.
  • In Sweden
  • List of Countries
  • For 7 days
  • Water Temperature
  • Satellite Maps
  • Weather Map
  • Weather Widgets
  • user-avatar
    Login

    Hourly Weather Chernoreck

    Today, 17 June, Monday

    Time Temperature Precipitation Wind Pressure Humidity
    00:00 +10°C° 0 mm 4 mps 748 mmHg 71%
    01:00 +10°C° 0 mm 4 mps 748 mmHg 72%
    02:00 +10°C° 0 mm 4 mps 748 mmHg 73%
    03:00 +10°C° 0 mm 4 mps 748 mmHg 73%
    04:00 +10°C° 0 mm 4 mps 748 mmHg 74%
    05:00 +10°C° 0 mm 3 mps 748 mmHg 76%
    06:00 +12°C° 0 mm 4 mps 748 mmHg 70%
    07:00 +14°C° 0 mm 5 mps 749 mmHg 64%
    08:00 +16°C° 0 mm 5 mps 749 mmHg 59%
    09:00 +17°C° 0 mm 5 mps 748 mmHg 53%
    10:00 +19°C° 0 mm 5 mps 748 mmHg 48%
    11:00 +21°C° 0 mm 6 mps 747 mmHg 43%
    12:00 +21°C° 0 mm 5 mps 747 mmHg 42%
    13:00 +21°C° 0 mm 5 mps 747 mmHg 41%
    14:00 +21°C° 0 mm 5 mps 746 mmHg 40%
    15:00 +21°C° 0 mm 5 mps 746 mmHg 40%
    16:00 +21°C° 0 mm 5 mps 746 mmHg 40%
    17:00 +21°C° 0 mm 5 mps 745 mmHg 41%
    18:00 +20°C° 0 mm 4 mps 745 mmHg 47%
    19:00 +18°C° 0 mm 4 mps 745 mmHg 53%
    20:00 +17°C° 0 mm 4 mps 744 mmHg 60%
    21:00 +15°C° 0 mm 4 mps 744 mmHg 60%
    22:00 +15°C° 0 mm 4 mps 743 mmHg 60%
    23:00 +15°C° 0 mm 4 mps 743 mmHg 60%

    Tomorrow, 18 June, Tuesday

    Time Temperature Precipitation Wind Pressure Humidity
    00:00 +15°C° 0.1 mm 4 mps 742 mmHg 65%
    01:00 +14°C° 0.1 mm 5 mps 742 mmHg 70%
    02:00 +14°C° 0.1 mm 5 mps 741 mmHg 75%
    03:00 +14°C° 0.2 mm 5 mps 741 mmHg 78%
    04:00 +14°C° 0.2 mm 5 mps 741 mmHg 81%
    05:00 +14°C° 0.2 mm 5 mps 740 mmHg 84%
    06:00 +15°C° 0.1 mm 5 mps 740 mmHg 81%
    07:00 +16°C° 0.1 mm 5 mps 741 mmHg 77%
    08:00 +16°C° 0.1 mm 5 mps 741 mmHg 74%
    09:00 +17°C° 0.6 mm 5 mps 741 mmHg 68%
    10:00 +19°C° 0.6 mm 5 mps 740 mmHg 61%
    11:00 +20°C° 0.6 mm 6 mps 740 mmHg 55%
    12:00 +21°C° 0.1 mm 6 mps 741 mmHg 54%
    13:00 +21°C° 0.1 mm 6 mps 741 mmHg 53%
    14:00 +21°C° 0.1 mm 7 mps 741 mmHg 52%
    15:00 +20°C° 0.4 mm 7 mps 741 mmHg 54%
    16:00 +18°C° 0.4 mm 7 mps 742 mmHg 56%
    17:00 +19°C° 0.4 mm 6 mps 742 mmHg 58%
    18:00 +17°C° 0.2 mm 5 mps 743 mmHg 63%
    19:00 +15°C° 0.2 mm 4 mps 743 mmHg 67%
    20:00 +14°C° 0.2 mm 3 mps 744 mmHg 71%
    21:00 +13°C° 0 mm 3 mps 744 mmHg 72%
    22:00 +13°C° 0 mm 3 mps 745 mmHg 73%
    23:00 +13°C° 0 mm 2 mps 745 mmHg 75%

    Day after tomorrow, 19 June, Wednesday

    Time Temperature Precipitation Wind Pressure Humidity
    00:00 +13°C° 0 mm 2 mps 745 mmHg 74%
    01:00 +12°C° 0 mm 2 mps 745 mmHg 74%
    02:00 +12°C° 0 mm 2 mps 746 mmHg 74%
    03:00 +12°C° 0 mm 2 mps 746 mmHg 72%
    04:00 +13°C° 0 mm 2 mps 746 mmHg 71%
    05:00 +13°C° 0 mm 2 mps 746 mmHg 69%
    06:00 +15°C° 0 mm 2 mps 747 mmHg 65%
    07:00 +16°C° 0 mm 3 mps 747 mmHg 60%
    08:00 +18°C° 0 mm 3 mps 747 mmHg 55%
    09:00 +19°C° 0.1 mm 3 mps 747 mmHg 53%
    10:00 +20°C° 0.1 mm 3 mps 747 mmHg 51%
    11:00 +21°C° 0.1 mm 3 mps 747 mmHg 48%
    12:00 +21°C° 0.3 mm 3 mps 747 mmHg 49%
    13:00 +21°C° 0.3 mm 3 mps 747 mmHg 49%
    14:00 +22°C° 0.3 mm 4 mps 747 mmHg 49%
    15:00 +22°C° 0 mm 3 mps 747 mmHg 49%
    16:00 +22°C° 0 mm 3 mps 747 mmHg 49%
    17:00 +23°C° 0 mm 2 mps 747 mmHg 49%
    18:00 +21°C° 0 mm 2 mps 747 mmHg 51%
    19:00 +20°C° 0 mm 2 mps 747 mmHg 54%
    20:00 +20°C° 0 mm 1 mps 748 mmHg 57%
    21:00 +20°C° 0 mm 1 mps 748 mmHg 57%
    22:00 +18°C° 0 mm 2 mps 748 mmHg 57%
    23:00 +18°C° 0 mm 2 mps 749 mmHg 57%

    20 June, Thursday

    Time Temperature Precipitation Wind Pressure Humidity
    00:00 +17°C° 0 mm 2 mps 749 mmHg 64%
    01:00 +16°C° 0 mm 3 mps 749 mmHg 70%
    02:00 +14°C° 0 mm 3 mps 749 mmHg 77%
    03:00 +14°C° 0 mm 4 mps 750 mmHg 79%
    04:00 +13°C° 0 mm 4 mps 750 mmHg 81%
    05:00 +13°C° 0 mm 4 mps 750 mmHg 83%
    06:00 +14°C° 0 mm 3 mps 751 mmHg 76%
    07:00 +17°C° 0 mm 3 mps 751 mmHg 70%
    08:00 +18°C° 0 mm 3 mps 751 mmHg 63%
    09:00 +19°C° 0 mm 3 mps 751 mmHg 57%
    10:00 +20°C° 0 mm 3 mps 751 mmHg 51%
    11:00 +21°C° 0 mm 3 mps 751 mmHg 44%
    12:00 +22°C° 0 mm 3 mps 751 mmHg 41%
    13:00 +22°C° 0 mm 3 mps 751 mmHg 38%
    14:00 +24°C° 0 mm 3 mps 751 mmHg 35%
    15:00 +24°C° 0 mm 3 mps 751 mmHg 36%
    16:00 +24°C° 0 mm 3 mps 751 mmHg 37%
    17:00 +24°C° 0 mm 2 mps 751 mmHg 38%
    18:00 +23°C° 0 mm 2 mps 751 mmHg 45%
    19:00 +20°C° 0 mm 2 mps 752 mmHg 51%
    20:00 +20°C° 0 mm 1 mps 752 mmHg 57%
    21:00 +19°C° 0 mm 1 mps 752 mmHg 60%
    22:00 +18°C° 0 mm 1 mps 752 mmHg 62%
    23:00 +18°C° 0 mm 1 mps 752 mmHg 64%

    21 June, Friday

    Time Temperature Precipitation Wind Pressure Humidity
    00:00 +15°C° 0 mm 0 mps 752 mmHg 66%
    01:00 +15°C° 0 mm 0 mps 752 mmHg 69%
    02:00 +14°C° 0 mm 0 mps 752 mmHg 71%
    03:00 +15°C° 0 mm 0 mps 752 mmHg 70%
    04:00 +16°C° 0 mm 1 mps 752 mmHg 70%
    05:00 +16°C° 0 mm 1 mps 752 mmHg 69%
    06:00 +19°C° 0 mm 1 mps 752 mmHg 62%
    07:00 +20°C° 0 mm 2 mps 752 mmHg 56%
    08:00 +23°C° 0 mm 2 mps 752 mmHg 49%
    09:00 +23°C° 0 mm 2 mps 752 mmHg 45%
    10:00 +24°C° 0 mm 3 mps 752 mmHg 42%
    11:00 +25°C° 0 mm 3 mps 751 mmHg 38%
    12:00 +26°C° 0 mm 3 mps 751 mmHg 37%
    13:00 +26°C° 0 mm 3 mps 750 mmHg 36%
    14:00 +27°C° 0 mm 3 mps 750 mmHg 34%
    15:00 +27°C° 0 mm 2 mps 750 mmHg 34%
    16:00 +27°C° 0 mm 2 mps 749 mmHg 34%
    17:00 +27°C° 0 mm 2 mps 749 mmHg 35%
    18:00 +25°C° 0 mm 2 mps 749 mmHg 39%
    19:00 +24°C° 0 mm 2 mps 749 mmHg 44%
    20:00 +21°C° 0 mm 2 mps 749 mmHg 49%
    21:00 +21°C° 0 mm 2 mps 748 mmHg 49%
    22:00 +20°C° 0 mm 2 mps 748 mmHg 49%
    23:00 +19°C° 0 mm 2 mps 748 mmHg 49%

    22 June, Saturday

    Time Temperature Precipitation Wind Pressure Humidity
    00:00 +19°C° 0 mm 3 mps 748 mmHg 50%
    01:00 +18°C° 0 mm 3 mps 747 mmHg 50%
    02:00 +18°C° 0 mm 3 mps 747 mmHg 51%
    03:00 +18°C° 0 mm 3 mps 747 mmHg 53%
    04:00 +18°C° 0 mm 3 mps 747 mmHg 56%
    05:00 +18°C° 0 mm 3 mps 747 mmHg 59%
    06:00 +18°C° 0.4 mm 3 mps 747 mmHg 63%
    07:00 +19°C° 0.4 mm 4 mps 747 mmHg 67%
    08:00 +19°C° 0.4 mm 5 mps 747 mmHg 71%
    09:00 +20°C° 0.5 mm 5 mps 747 mmHg 67%
    10:00 +21°C° 0.5 mm 5 mps 747 mmHg 63%
    11:00 +22°C° 0.5 mm 5 mps 747 mmHg 59%
    12:00 +23°C° 0.5 mm 5 mps 748 mmHg 57%
    13:00 +23°C° 0.5 mm 5 mps 748 mmHg 54%
    14:00 +23°C° 0.5 mm 6 mps 748 mmHg 52%
    15:00 +23°C° 0.2 mm 6 mps 748 mmHg 53%
    16:00 +22°C° 0.2 mm 6 mps 748 mmHg 53%
    17:00 +22°C° 0.2 mm 6 mps 748 mmHg 53%
    18:00 +20°C° 0.2 mm 6 mps 749 mmHg 59%
    19:00 +19°C° 0.2 mm 5 mps 749 mmHg 65%
    20:00 +17°C° 0.2 mm 4 mps 749 mmHg 70%
    21:00 +15°C° 0 mm 4 mps 750 mmHg 73%
    22:00 +14°C° 0 mm 4 mps 750 mmHg 77%
    23:00 +13°C° 0 mm 3 mps 750 mmHg 80%
    Show more